• In Uzbekistan
  • List of Countries
  • For 7 days
  • Water Temperature
  • Satellite Maps
  • Weather Map
  • Weather Widgets
  • user-avatar
    Login

    Hourly Weather Megri

    Today, 23 January, Monday

    Time Temperature Precipitation Wind Pressure Humidity
    00:00 -15°C° 0 mm 1 mps 619 mmHg 85%
    01:00 -16°C° 0 mm 1 mps 619 mmHg 86%
    02:00 -16°C° 0 mm 0 mps 619 mmHg 86%
    03:00 -17°C° 0 mm 1 mps 619 mmHg 88%
    04:00 -17°C° 0 mm 1 mps 619 mmHg 88%
    05:00 -17°C° 0 mm 1 mps 619 mmHg 88%
    06:00 -17°C° 0 mm 1 mps 619 mmHg 88%
    07:00 -14°C° 0 mm 1 mps 621 mmHg 85%
    08:00 -11°C° 0 mm 1 mps 622 mmHg 82%
    09:00 -9°C° 0 mm 1 mps 624 mmHg 80%
    10:00 -7°C° 0 mm 1 mps 624 mmHg 76%
    11:00 -4°C° 0 mm 1 mps 625 mmHg 72%
    12:00 -3°C° 0 mm 1 mps 625 mmHg 68%
    13:00 -3°C° 0 mm 1 mps 625 mmHg 70%
    14:00 -3°C° 0 mm 1 mps 625 mmHg 73%
    15:00 -3°C° 0 mm 1 mps 625 mmHg 75%
    16:00 -7°C° 0 mm 1 mps 623 mmHg 80%
    17:00 -11°C° 0 mm 1 mps 621 mmHg 85%
    18:00 -15°C° 0 mm 1 mps 620 mmHg 90%
    19:00 -15°C° 0 mm 1 mps 620 mmHg 89%
    20:00 -16°C° 0 mm 0 mps 620 mmHg 89%
    21:00 -16°C° 0 mm 0 mps 620 mmHg 89%
    22:00 -16°C° 0 mm 0 mps 620 mmHg 88%
    23:00 -16°C° 0 mm 0 mps 620 mmHg 88%

    Tomorrow, 24 January, Tuesday

    Time Temperature Precipitation Wind Pressure Humidity
    00:00 -16°C° 0 mm 0 mps 620 mmHg 88%
    01:00 -16°C° 0 mm 0 mps 620 mmHg 88%
    02:00 -16°C° 0 mm 0 mps 620 mmHg 88%
    03:00 -17°C° 0 mm 0 mps 620 mmHg 88%
    04:00 -17°C° 0 mm 0 mps 620 mmHg 87%
    05:00 -17°C° 0 mm 0 mps 620 mmHg 87%
    06:00 -17°C° 0 mm 0 mps 620 mmHg 87%
    07:00 -14°C° 0 mm 1 mps 622 mmHg 82%
    08:00 -11°C° 0 mm 1 mps 623 mmHg 77%
    09:00 -8°C° 0 mm 1 mps 625 mmHg 72%
    10:00 -6°C° 0 mm 1 mps 625 mmHg 69%
    11:00 -3°C° 0 mm 1 mps 626 mmHg 66%
    12:00 -1°C° 0 mm 1 mps 626 mmHg 62%
    13:00 -1°C° 0 mm 1 mps 625 mmHg 66%
    14:00 -1°C° 0 mm 1 mps 625 mmHg 69%
    15:00 -2°C° 0 mm 1 mps 624 mmHg 72%
    16:00 -6°C° 0 mm 1 mps 623 mmHg 78%
    17:00 -10°C° 0 mm 1 mps 621 mmHg 83%
    18:00 -14°C° 0 mm 1 mps 619 mmHg 88%
    19:00 -13°C° 0 mm 1 mps 619 mmHg 86%
    20:00 -13°C° 0 mm 1 mps 619 mmHg 85%
    21:00 -15°C° 0 mm 2 mps 619 mmHg 83%
    22:00 -15°C° 0 mm 2 mps 619 mmHg 81%
    23:00 -15°C° 0 mm 2 mps 619 mmHg 78%

    Day after tomorrow, 25 January, Wednesday

    Time Temperature Precipitation Wind Pressure Humidity
    00:00 -15°C° 0 mm 2 mps 618 mmHg 75%
    01:00 -14°C° 0 mm 2 mps 618 mmHg 73%
    02:00 -14°C° 0 mm 2 mps 618 mmHg 70%
    03:00 -14°C° 0 mm 2 mps 618 mmHg 68%
    04:00 -14°C° 0 mm 2 mps 618 mmHg 68%
    05:00 -14°C° 0 mm 2 mps 618 mmHg 68%
    06:00 -14°C° 0 mm 2 mps 617 mmHg 68%
    07:00 -12°C° 0 mm 2 mps 618 mmHg 69%
    08:00 -9°C° 0 mm 2 mps 619 mmHg 69%
    09:00 -7°C° 0 mm 2 mps 620 mmHg 70%
    10:00 -6°C° 0 mm 3 mps 620 mmHg 70%
    11:00 -5°C° 0 mm 3 mps 620 mmHg 69%
    12:00 -2°C° 0 mm 3 mps 619 mmHg 69%
    13:00 -2°C° 0 mm 3 mps 619 mmHg 70%
    14:00 -2°C° 0 mm 3 mps 619 mmHg 71%
    15:00 -2°C° 0 mm 2 mps 618 mmHg 73%
    16:00 -3°C° 0 mm 2 mps 618 mmHg 73%
    17:00 -5°C° 0 mm 2 mps 618 mmHg 73%
    18:00 -6°C° 0 mm 2 mps 617 mmHg 74%
    19:00 -6°C° 0 mm 2 mps 617 mmHg 73%
    20:00 -6°C° 0 mm 2 mps 617 mmHg 73%
    21:00 -8°C° 0 mm 3 mps 616 mmHg 73%
    22:00 -8°C° 0 mm 3 mps 616 mmHg 74%
    23:00 -7°C° 0 mm 3 mps 616 mmHg 76%

    26 January, Thursday

    Time Temperature Precipitation Wind Pressure Humidity
    00:00 -7°C° 0 mm 3 mps 616 mmHg 78%
    01:00 -8°C° 0 mm 3 mps 616 mmHg 79%
    02:00 -8°C° 0 mm 3 mps 616 mmHg 80%
    03:00 -8°C° 0 mm 3 mps 615 mmHg 81%
    04:00 -8°C° 0 mm 3 mps 615 mmHg 81%
    05:00 -7°C° 0 mm 2 mps 615 mmHg 81%
    06:00 -7°C° 0 mm 2 mps 615 mmHg 81%
    07:00 -6°C° 0.1 mm 2 mps 616 mmHg 80%
    08:00 -5°C° 0.1 mm 2 mps 616 mmHg 80%
    09:00 -4°C° 0.1 mm 2 mps 617 mmHg 80%
    10:00 -4°C° 0.1 mm 3 mps 617 mmHg 79%
    11:00 -2°C° 0.1 mm 3 mps 617 mmHg 79%
    12:00 -2°C° 0.1 mm 4 mps 617 mmHg 79%
    13:00 -2°C° 0 mm 4 mps 616 mmHg 78%
    14:00 -1°C° 0 mm 3 mps 616 mmHg 77%
    15:00 -1°C° 0 mm 3 mps 615 mmHg 76%
    16:00 -4°C° 0 mm 3 mps 615 mmHg 78%
    17:00 -5°C° 0 mm 2 mps 614 mmHg 80%
    18:00 -7°C° 0 mm 2 mps 614 mmHg 82%
    19:00 -7°C° 0 mm 2 mps 614 mmHg 82%
    20:00 -6°C° 0 mm 2 mps 615 mmHg 83%
    21:00 -6°C° 0 mm 2 mps 615 mmHg 83%
    22:00 -6°C° 0.1 mm 2 mps 615 mmHg 84%
    23:00 -6°C° 0.1 mm 2 mps 615 mmHg 86%

    27 January, Friday

    Time Temperature Precipitation Wind Pressure Humidity
    00:00 -4°C° 0.1 mm 1 mps 615 mmHg 87%
    01:00 -6°C° 0 mm 1 mps 614 mmHg 87%
    02:00 -7°C° 0 mm 1 mps 614 mmHg 88%
    03:00 -7°C° 0 mm 1 mps 614 mmHg 89%
    04:00 -8°C° 0 mm 1 mps 614 mmHg 89%
    05:00 -8°C° 0 mm 1 mps 613 mmHg 89%
    06:00 -9°C° 0 mm 1 mps 613 mmHg 89%
    07:00 -7°C° 0 mm 1 mps 614 mmHg 87%
    08:00 -6°C° 0 mm 2 mps 615 mmHg 86%
    09:00 -5°C° 0 mm 2 mps 616 mmHg 84%
    10:00 -4°C° 0.1 mm 2 mps 616 mmHg 85%
    11:00 -3°C° 0.1 mm 2 mps 616 mmHg 85%
    12:00 -2°C° 0.1 mm 2 mps 616 mmHg 86%
    13:00 -2°C° 0.5 mm 2 mps 616 mmHg 87%
    14:00 -3°C° 0.5 mm 2 mps 615 mmHg 87%
    15:00 -3°C° 0.5 mm 2 mps 615 mmHg 88%
    16:00 -4°C° 0.5 mm 2 mps 615 mmHg 89%
    17:00 -5°C° 0.5 mm 2 mps 615 mmHg 90%
    18:00 -6°C° 0.5 mm 2 mps 615 mmHg 91%
    19:00 -6°C° 0.3 mm 2 mps 615 mmHg 91%
    20:00 -7°C° 0.3 mm 2 mps 615 mmHg 90%
    21:00 -7°C° 0.3 mm 2 mps 616 mmHg 90%
    22:00 -7°C° 0.2 mm 2 mps 616 mmHg 90%
    23:00 -7°C° 0.2 mm 2 mps 616 mmHg 90%

    28 January, Saturday

    Time Temperature Precipitation Wind Pressure Humidity
    00:00 -7°C° 0.2 mm 2 mps 616 mmHg 89%
    01:00 -7°C° 0.2 mm 2 mps 615 mmHg 89%
    02:00 -7°C° 0.2 mm 2 mps 615 mmHg 89%
    03:00 -7°C° 0.2 mm 2 mps 615 mmHg 89%
    04:00 -7°C° 0.2 mm 2 mps 615 mmHg 89%
    05:00 -7°C° 0.2 mm 2 mps 615 mmHg 89%
    06:00 -7°C° 0.2 mm 2 mps 615 mmHg 90%
    07:00 -6°C° 0.1 mm 2 mps 616 mmHg 89%
    08:00 -5°C° 0.1 mm 2 mps 616 mmHg 87%
    09:00 -4°C° 0.1 mm 2 mps 617 mmHg 86%
    10:00 -3°C° 0.2 mm 2 mps 617 mmHg 86%
    11:00 -2°C° 0.2 mm 2 mps 617 mmHg 86%
    12:00 -1°C° 0.2 mm 2 mps 617 mmHg 86%
    13:00 -1°C° 0.2 mm 2 mps 617 mmHg 85%
    14:00 -1°C° 0.2 mm 2 mps 617 mmHg 84%
    15:00 -1°C° 0.2 mm 2 mps 616 mmHg 82%
    16:00 -2°C° 0.5 mm 2 mps 616 mmHg 84%
    17:00 -3°C° 0.5 mm 2 mps 616 mmHg 87%
    18:00 -4°C° 0.5 mm 2 mps 616 mmHg 89%
    19:00 -4°C° 0.3 mm 2 mps 616 mmHg 88%
    20:00 -4°C° 0.3 mm 2 mps 616 mmHg 88%
    21:00 -6°C° 0.3 mm 3 mps 616 mmHg 88%
    22:00 -6°C° 0.1 mm 3 mps 615 mmHg 88%
    23:00 -6°C° 0.1 mm 3 mps 615 mmHg 88%
    Show more